Location: Unspecified
(0.0000°N, 0.0000°E)
Time: 05:28:55
(UTC+00:00)

deb Explorer IX - Visible Passes

Search period start: 26 April 2018 00:00
Search period end: 06 May 2018 00:00
Orbit: 550 x 1111 km, 38.8° (Epoch: 24 April)

Date Brightness Start Highest point End Pass type
(mag) Time Alt. Az. Time Alt. Az. Time Alt. Az.
01 May ? 20:41:29 10° N 20:41:34 10° N 20:41:34 10° N visible
02 May ? 20:20:58 10° N 20:22:19 13° NNE 20:22:19 13° NNE visible
03 May ? 20:00:29 10° N 20:03:08 16° NNE 20:03:08 16° NNE visible
04 May ? 19:40:01 10° N 19:44:00 18° NE 19:44:00 18° NE visible
04 May ? 21:24:52 10° NW 21:25:29 13° NW 21:25:29 13° NW visible
05 May ? 19:19:35 10° N 19:23:50 18° NE 19:24:55 18° NE visible
05 May ? 21:04:30 10° NW 21:06:25 21° NW 21:06:25 21° NW visible
